EDW22 LSZH-MDPP

Flight info

Callsign EDW22
Flight time N/A
Altitude 34000
Route VEBIT T10 TORPA DCT REKLA DCT RLP DCT ROTSI DCT AMODO DCT COHPA UM729 RESMI UN491 LGL UN502 JSY DCT LIZAD DCT GAPLI/M080F340 DCT DINIM DCT 51N020W 5030N03000W 48N040W 44N050W/M080F380 DCT SOORY DCT QINCY DCT BALTN DCT DUNIG DCT LAMER/N0459F390 L453 MACKI M596 POKEG POKEG2S
Aircraft A343/H-SDE2E3FGHIJ4J5M1RWXY/LB1D1

Departure

Time 2026-04-26 20:28
Airport Zürich Airport (LSZH)

Arrival

Time N/A
Airport Gregorio Luperon International Airport (MDPP)
Time Latitude Longitude Altitude Speed Heading
2026-04-26 19:31 47.46157 8.55779 1407 ft 0 kts 186°
2026-04-26 20:15 47.46158 8.55779 1407 ft 0 kts 186°
2026-04-26 20:16 47.46158 8.55780 1407 ft 0 kts 186°
2026-04-26 20:17 47.46171 8.55782 1415 ft 4 kts 186°
2026-04-26 20:17 47.46194 8.55785 1411 ft 2 kts 186°
2026-04-26 20:17 47.46217 8.55789 1412 ft 4 kts 174°
2026-04-26 20:17 47.46234 8.55773 1411 ft 4 kts 107°
2026-04-26 20:18 47.46239 8.55736 1410 ft 4 kts 96°
2026-04-26 20:18 47.46241 8.55706 1408 ft 0 kts 96°
2026-04-26 20:18 47.46242 8.55705 1408 ft 0 kts 96°
2026-04-26 20:22 47.46242 8.55708 1408 ft 4 kts 96°
2026-04-26 20:22 47.46232 8.55855 1408 ft 22 kts 96°
2026-04-26 20:23 47.46185 8.56027 1418 ft 15 kts 136°
2026-04-26 20:23 47.46125 8.56111 1418 ft 8 kts 136°
2026-04-26 20:23 47.46077 8.56177 1421 ft 14 kts 137°
2026-04-26 20:23 47.46045 8.56263 1415 ft 0 kts 84°
2026-04-26 20:24 47.46045 8.56264 1413 ft 2 kts 84°
2026-04-26 20:24 47.46062 8.56331 1418 ft 9 kts 52°
2026-04-26 20:25 47.46111 8.56389 1423 ft 9 kts 29°
2026-04-26 20:25 47.46150 8.56390 1420 ft 9 kts 345°
2026-04-26 20:25 47.46232 8.56305 1419 ft 0 kts 317°
2026-04-26 20:26 47.46249 8.56281 1420 ft 18 kts 317°
2026-04-26 20:27 47.46493 8.55949 1409 ft 77 kts 317°
2026-04-26 20:27 47.47017 8.55233 1401 ft 126 kts 317°
2026-04-26 20:27 47.47767 8.54209 1413 ft 166 kts 316°
2026-04-26 20:27 47.48673 8.53002 1691 ft 181 kts 322°
2026-04-26 20:28 47.49715 8.51832 2140 ft 191 kts 324°
2026-04-26 20:28 47.50692 8.50509 2652 ft 194 kts 316°
2026-04-26 20:28 47.51460 8.48701 2728 ft 225 kts 292°
2026-04-26 20:28 47.51753 8.46303 2968 ft 248 kts 274°
2026-04-26 20:29 47.51789 8.43647 3275 ft 268 kts 269°
2026-04-26 20:29 47.51561 8.40869 3818 ft 277 kts 248°
2026-04-26 20:29 47.50439 8.38607 4432 ft 276 kts 211°
2026-04-26 20:29 47.48676 8.37579 5067 ft 276 kts 193°
2026-04-26 20:30 47.46793 8.36970 5737 ft 278 kts 192°
2026-04-26 20:30 47.44913 8.36415 6456 ft 279 kts 188°
2026-04-26 20:30 47.43001 8.35899 7116 ft 280 kts 188°
2026-04-26 20:30 47.41078 8.35333 7717 ft 284 kts 192°
2026-04-26 20:31 47.39256 8.34191 8235 ft 288 kts 216°
2026-04-26 20:31 47.37935 8.32002 8910 ft 285 kts 239°
2026-04-26 20:31 47.36997 8.29450 9622 ft 283 kts 244°
2026-04-26 20:31 47.36118 8.26838 10242 ft 285 kts 245°
2026-04-26 20:32 47.35211 8.24181 10584 ft 297 kts 244°
2026-04-26 20:32 47.34251 8.21411 10826 ft 311 kts 244°
2026-04-26 20:32 47.33232 8.18513 11056 ft 324 kts 244°
2026-04-26 20:32 47.32167 8.15504 11288 ft 338 kts 243°
2026-04-26 20:33 47.31060 8.12385 11522 ft 350 kts 243°
2026-04-26 20:33 47.29912 8.09159 11910 ft 357 kts 242°
2026-04-26 20:33 47.28708 8.05923 12364 ft 362 kts 239°
2026-04-26 20:33 47.27534 8.02625 12696 ft 368 kts 241°
2026-04-26 20:34 47.26566 7.99165 12924 ft 373 kts 248°
2026-04-26 20:34 47.26054 7.95379 13374 ft 372 kts 262°
2026-04-26 20:34 47.26102 7.91639 13967 ft 369 kts 268°